Hourly Data Report for October 03, 2017

All times are specified in Local Standard Time (LST). Add 1 hour to adjust for Daylight Saving Time where and when it is observed.

GRAND RAPIDS (AUT)
MANITOBA

53°11'11.064" N
99°16'04.098" W
222.50 m
5031A10
71858
WJD

Download Data

Hourly Data (October 2017)
Hourly Data Report for October 3, 2017
Temp Definition
°C
Dew Point Temp Definition
°C
Rel Hum Definition
%
Wind Dir Definition
10's deg

Wind Spd Definition
km/h
Visibility Definition
km
Stn Press Definition
kPa
Hmdx Definition


Wind Chill Definition


Weather Definition


TIME
00:00 8.5 7.4 93 20 2   98.16     LegendNANA
01:00 8.6 7.6 93 1 5   98.22     LegendNANA
02:00 7.6 6.7 94 1 13   98.31     LegendNANA
03:00 7.3 6.5 95 3 26   98.39     LegendNANA
04:00 6.9 5.8 93 3 28   98.52     LegendNANA
05:00 6.3 5.3 93 3 26   98.73     LegendNANA
06:00 6.4 5.5 94 3 23   98.79     LegendNANA
07:00 5.7 4.8 94 3 25   98.90     LegendNANA
08:00 5.6 4.6 94 3 23   99.04     LegendNANA
09:00 5.7 4.7 93 4 20   99.11     LegendNANA
10:00 5.9 4.7 92 4 21   99.14     LegendNANA
11:00 6.0 5.0 93 4 17   99.16     LegendNANA
12:00 6.4 5.0 91 4 20   99.16     LegendNANA
13:00 6.4 5.2 92 3 15   99.20     LegendNANA
14:00 6.2 5.0 92 3 14   99.26     LegendNANA
15:00 6.2 5.1 93 3 14   99.29     LegendNANA
16:00 5.5 4.6 95 35 8   99.33     LegendNANA
17:00 5.2 4.5 95 34 8   99.33     LegendNANA
18:00 5.1 4.3 95 33 6   99.31     LegendNANA
19:00 5.0 4.2 95 32 4   99.32     LegendNANA
20:00 5.1 4.3 95 32 6   99.31     LegendNANA
21:00 5.2 4.5 95 30 4   99.30     LegendNANA
22:00 5.4 4.6 95 29 4   99.28     LegendNANA
23:00 4.7 3.9 95 29 5   99.21     LegendNANA

Notes on Data Quality.

Legend

  • E = Estimated
  • M = Missing
  • NA = Not Available
  • ‡ = Partner data that is not subject to review by the National Climate Archives
Date modified: